{"data":{"norad_id":37781,"epoch":"2026-09-20T05:29:10.305600Z","epoch_age_seconds":37895,"freshness":"FRESH","line1":"1 37781U 11043A   26263.22859150 -.00000255  00000+0 -23565-3 0  9993","line2":"2 37781  99.3461 263.5577 0003753 112.3858 247.7687 13.71332466759694","mean_motion":13.71332466,"eccentricity":0.0003753,"inclination_deg":99.3461,"raan_deg":263.5577,"arg_perigee_deg":112.3858,"mean_anomaly_deg":247.7687,"bstar":-0.00023565,"rev_number":75969,"period_min":105.00735858754,"perigee_km":992.02410716749,"apogee_km":997.55822704972,"semimajor_km":7372.9281671086,"source":"CELESTRAK","updated_at":"2026-09-20T09:00:33.892004Z"}}